Find Starlink 37125

NORAD ID: 68276 Int'l Des: 2026-055 Owner: SPXS Country: US Constellation: starlink operational
LEOCIRCULAR

Current View

Loading 3D Globe...

About Starlink 37125

Starlink 37125 (NORAD 68276) is a starlink constellation satellite (v2 mini) launched Mar 19, 2026 by SPXS of US. It operates in LEO, CIRCULAR orbit with a mass of 575.00 kg.

About Starlink 37125

Description loading...

Upcoming Passes

Passes for default location (London). Set your location on the main map for personalized predictions.

Altitude History

Loading altitude history...

Two-Line Element Set

1 68276U 26055Q 26169.40027076 .00014916 00000-0 45164-3 0 9991
2 68276 53.1564 209.8076 0001178 87.2742 272.8396 15.34404634 15371
Epoch: Jun 18, 2026 • Age: 13 hours

Current Status

Altitude 466.1 km
Velocity 7.64 km/s
Sub-Earth Point 42.60°N, 7.99°E
Launch Date Mar 19, 2026
Age 0.2 years
Type internet

Technical Details

Classification Payload
Mass 575.00 kg
Dry Mass 530.00 kg
Total Mass 575.00 kg
Length 0.30 m
Diameter 4.10 m
Span 29.00 m
Shape Box + pan
Manufacturer SPXS
Bus Type Starlink V2MO
Phase Status In Orbit
Owner/State SPXS/US

Most Searched